Back to catalog

CARTOSAT 2D

AliveScienceSSO
NORAD 41948·PAYLOAD·🇮🇳 India

Launched Feb 15, 2017 from Satish Dhawan Space Centre

Loading…

Next Passes (next 24 hours)

TLE

FreshSource: Space-Track

Epoch: Sep 14, 2026, 14:24 UTC

1 41948U 17008A   26257.60063259  .00002130  00000-0  10405-3 0  9994
2 41948  97.4014 315.1905 0003357 298.6519  61.4378 15.19319224531156

Track CARTOSAT 2D in real time with AllMySat

Download on the App Store